Time,TemperatureF,DewpointF,PressureIn,WindDirection,WindDirectionDegrees,WindSpeedMPH,WindSpeedGustMPH,Humidity,HourlyPrecipIn,Conditions,Clouds,dailyrainin,SolarRadiationWatts/m^2,SoftwareType,DateUTC
2013-06-05 00:01:00,54.5,-99.9,29.93,SE,145,0.0,0.0,98,0.00,,,0.00,0.027,,2013-06-05 05:01:00,
2013-06-05 00:11:00,54.5,-99.9,29.93,East,96,0.0,0.0,98,0.00,,,0.00,0.081,,2013-06-05 05:11:00,
2013-06-05 00:21:00,54.5,-99.9,29.93,NE,49,0.0,0.0,98,0.00,,,0.00,0.139,,2013-06-05 05:21:00,
2013-06-05 00:31:00,54.3,-99.9,29.93,North,10,0.0,0.0,98,0.00,,,0.00,0.034,,2013-06-05 05:31:00,
2013-06-05 00:41:00,54.5,-99.9,29.94,NE,37,0.0,0.0,98,0.00,,,0.00,0.061,,2013-06-05 05:41:00,
2013-06-05 00:51:00,54.1,-99.9,29.94,WSW,241,0.0,0.0,98,0.00,,,0.00,0.081,,2013-06-05 05:51:00,
2013-06-05 01:01:00,53.9,-99.9,29.94,SW,228,0.0,0.0,98,0.00,,,0.00,0.125,,2013-06-05 06:01:00,
2013-06-05 01:11:00,54.1,-99.9,29.94,WSW,245,0.0,0.0,98,0.00,,,0.00,0.037,,2013-06-05 06:11:00,
2013-06-05 01:21:00,54.3,-99.9,29.94,SSW,192,0.0,0.0,98,0.00,,,0.00,0.102,,2013-06-05 06:21:00,
2013-06-05 01:31:00,54.7,-99.9,29.94,SSW,204,0.0,0.0,98,0.00,,,0.00,0.135,,2013-06-05 06:31:00,
2013-06-05 01:41:00,54.4,-99.9,29.94,SW,233,0.0,0.0,98,0.00,,,0.00,0.041,,2013-06-05 06:41:00,
2013-06-05 01:51:00,54.5,-99.9,29.94,WSW,238,0.0,0.0,98,0.00,,,0.00,0.068,,2013-06-05 06:51:00,
2013-06-05 02:01:00,54.7,-99.9,29.94,SW,227,0.0,0.0,98,0.00,,,0.00,0.01,,2013-06-05 07:01:00,
2013-06-05 02:11:00,54.8,-99.9,29.94,SW,225,0.0,0.0,98,0.00,,,0.00,0.034,,2013-06-05 07:11:00,
2013-06-05 02:21:00,54.9,-99.9,29.94,SW,225,0.0,0.0,98,0.00,,,0.00,0.074,,2013-06-05 07:21:00,
2013-06-05 02:31:00,55.5,-99.9,29.94,East,81,0.0,0.0,98,0.00,,,0.00,0.017,,2013-06-05 07:31:00,
2013-06-05 02:41:00,55.7,-99.9,29.93,NE,54,0.0,0.0,98,0.00,,,0.00,0.017,,2013-06-05 07:41:00,
2013-06-05 02:51:00,55.6,-99.9,29.93,NE,39,0.0,0.0,98,0.00,,,0.00,0.034,,2013-06-05 07:51:00,
2013-06-05 03:01:00,55.7,-99.9,29.94,ENE,68,0.0,0.0,98,0.00,,,0.00,0.041,,2013-06-05 08:01:00,
2013-06-05 03:11:00,55.6,-99.9,29.93,NE,34,0.0,0.0,98,0.00,,,0.00,0.044,,2013-06-05 08:11:00,
2013-06-05 03:21:00,55.7,-99.9,29.94,NE,50,0.0,0.0,99,0.00,,,0.00,0.115,,2013-06-05 08:21:00,
2013-06-05 03:31:00,55.6,-99.9,29.94,NE,45,1.0,2.1,99,0.00,,,0.00,0.034,,2013-06-05 08:31:00,
2013-06-05 03:41:00,55.6,-99.9,29.93,NNE,13,0.0,0.0,99,0.00,,,0.00,0.047,,2013-06-05 08:41:00,
2013-06-05 03:51:00,55.4,-99.9,29.93,NE,54,0.0,2.1,99,0.00,,,0.00,0.074,,2013-06-05 08:51:00,
2013-06-05 04:01:00,55.5,-99.9,29.93,North,351,0.0,0.0,99,0.00,,,0.00,0.068,,2013-06-05 09:01:00,
2013-06-05 04:11:00,55.5,-99.9,29.93,NNE,15,0.0,2.1,99,0.00,,,0.00,0.105,,2013-06-05 09:11:00,
2013-06-05 04:21:00,55.4,-99.9,29.93,North,0,2.0,3.8,99,0.00,,,0.00,0.149,,2013-06-05 09:21:00,
2013-06-05 04:31:00,55.4,-99.9,29.94,North,2,0.0,2.1,99,0.00,,,0.00,0.122,,2013-06-05 09:31:00,
2013-06-05 04:41:00,55.4,-99.9,29.94,NNE,15,2.0,5.4,99,0.00,,,0.00,0.078,,2013-06-05 09:41:00,
2013-06-05 04:51:00,55.2,-99.9,29.94,North,0,4.0,5.4,99,0.00,,,0.00,0.186,,2013-06-05 09:51:00,
2013-06-05 05:01:00,54.7,-99.9,29.95,North,8,6.0,12.1,99,0.00,,,0.00,0.203,,2013-06-05 10:01:00,
2013-06-05 05:11:00,54.0,-99.9,29.95,NE,41,4.0,7.1,99,0.00,,,0.00,0.203,,2013-06-05 10:11:00,
2013-06-05 05:21:00,53.5,-99.9,29.95,NNE,16,7.0,15.5,99,0.00,,,0.00,0.203,,2013-06-05 10:21:00,
2013-06-05 05:31:00,52.9,-99.9,29.95,NNE,18,10.0,13.8,99,0.00,,,0.00,0.278,,2013-06-05 10:31:00,
2013-06-05 05:41:00,52.6,-99.9,29.95,NNE,14,6.0,10.5,99,0.00,,,0.00,0.748,,2013-06-05 10:41:00,
2013-06-05 05:51:00,52.5,-99.9,29.96,ENE,76,8.0,10.5,99,0.00,,,0.00,1.438,,2013-06-05 10:51:00,
2013-06-05 06:01:00,52.4,-99.9,29.96,ENE,59,7.0,10.5,99,0.00,,,0.00,2.742,,2013-06-05 11:01:00,
2013-06-05 06:11:00,52.3,-99.9,29.96,NE,45,6.0,12.1,99,0.00,,,0.00,4.302,,2013-06-05 11:11:00,
2013-06-05 06:21:00,52.2,-99.9,29.96,NE,38,6.0,8.8,99,0.00,,,0.00,7.254,,2013-06-05 11:21:00,
2013-06-05 06:31:00,52.0,-99.9,29.96,NNE,15,8.0,12.1,99,0.00,,,0.00,12.42,,2013-06-05 11:31:00,
2013-06-05 06:41:00,52.0,-99.9,29.97,NE,43,7.0,10.5,99,0.00,,,0.00,17.53,,2013-06-05 11:41:00,
2013-06-05 06:51:00,52.1,-99.9,29.97,NNE,23,4.0,5.4,99,0.00,,,0.00,21.06,,2013-06-05 11:51:00,
2013-06-05 07:01:00,52.0,-99.9,29.97,NE,46,7.0,10.5,99,0.00,,,0.00,18.97,,2013-06-05 12:01:00,
2013-06-05 07:11:00,52.0,-99.9,29.98,NE,47,7.0,12.1,99,0.00,,,0.00,20.06,,2013-06-05 12:11:00,
2013-06-05 07:21:00,52.1,-99.9,29.98,NE,51,7.0,13.8,99,0.00,,,0.00,19.81,,2013-06-05 12:21:00,
2013-06-05 07:31:00,52.0,-99.9,29.98,NE,47,7.0,15.5,99,0.00,,,0.00,13.95,,2013-06-05 12:31:00,
2013-06-05 07:41:00,52.1,-99.9,29.99,NE,50,5.0,8.8,99,0.00,,,0.00,37.94,,2013-06-05 12:41:00,
2013-06-05 07:51:00,52.2,-99.9,29.99,North,3,7.0,13.8,99,0.00,,,0.00,31.5,,2013-06-05 12:51:00,
2013-06-05 08:01:00,52.1,-99.9,29.99,NNE,14,6.0,8.8,99,0.00,,,0.00,15.51,,2013-06-05 13:01:00,
2013-06-05 08:11:00,52.2,-99.9,29.99,NNE,13,5.0,8.8,99,0.00,,,0.00,20.37,,2013-06-05 13:11:00,
2013-06-05 08:21:00,52.3,-99.9,30.00,NNE,23,11.0,15.5,99,0.00,,,0.00,48.08,,2013-06-05 13:21:00,
2013-06-05 08:31:00,52.6,-99.9,30.00,North,6,5.0,8.8,99,0.00,,,0.00,53.96,,2013-06-05 13:31:00,
2013-06-05 08:41:00,52.7,-99.9,30.00,SE,142,7.0,10.5,99,0.00,,,0.00,82.2,,2013-06-05 13:41:00,
2013-06-05 08:51:00,52.7,-99.9,30.01,ENE,58,5.0,8.8,99,0.00,,,0.00,89.9,,2013-06-05 13:51:00,
2013-06-05 09:01:00,52.7,-99.9,30.01,NE,43,8.0,12.1,98,0.00,,,0.00,75.72,,2013-06-05 14:01:00,
2013-06-05 09:11:00,52.9,-99.9,30.01,NE,48,7.0,10.5,98,0.00,,,0.00,64.48,,2013-06-05 14:11:00,
2013-06-05 09:21:00,52.9,-99.9,30.01,NE,50,6.0,10.5,98,0.00,,,0.00,73.68,,2013-06-05 14:21:00,
2013-06-05 09:31:00,52.7,-99.9,30.02,NE,48,6.0,12.1,98,0.00,,,0.00,60.49,,2013-06-05 14:31:00,
2013-06-05 09:41:00,52.7,-99.9,30.02,North,350,4.0,7.1,97,0.00,,,0.00,78.44,,2013-06-05 14:41:00,
2013-06-05 09:51:00,52.8,-99.9,30.02,North,0,7.0,10.5,97,0.00,,,0.00,91.2,,2013-06-05 14:51:00,
2013-06-05 10:01:00,52.9,-99.9,30.03,NNE,27,6.0,8.8,96,0.00,,,0.00,89.5,,2013-06-05 15:01:00,
2013-06-05 10:11:00,53.0,-99.9,30.03,NNE,12,10.0,13.8,95,0.00,,,0.00,126.1,,2013-06-05 15:11:00,
2013-06-05 10:21:00,53.3,-99.9,30.03,NNE,14,5.0,8.8,94,0.00,,,0.00,106.1,,2013-06-05 15:21:00,
2013-06-05 10:31:00,53.2,-99.9,30.02,NNE,32,8.0,12.1,96,0.00,,,0.00,170.9,,2013-06-05 15:31:00,
2013-06-05 10:41:00,53.2,-99.9,30.03,NNE,14,7.0,10.5,95,0.00,,,0.00,146.7,,2013-06-05 15:41:00,
2013-06-05 10:51:00,53.5,-99.9,30.03,NE,51,8.0,12.1,93,0.00,,,0.00,201.9,,2013-06-05 15:51:00,
2013-06-05 11:01:00,54.1,-99.9,30.03,NE,49,6.0,10.5,92,0.00,,,0.00,159.1,,2013-06-05 16:01:00,
2013-06-05 11:11:00,54.5,-99.9,30.04,NNE,27,5.0,7.1,92,0.00,,,0.00,196,,2013-06-05 16:11:00,
2013-06-05 11:21:00,54.9,-99.9,30.04,NNE,25,9.0,13.8,90,0.00,,,0.00,341.5,,2013-06-05 16:21:00,
2013-06-05 11:31:00,54.8,-99.9,30.04,NNE,16,8.0,12.1,89,0.00,,,0.00,164.6,,2013-06-05 16:31:00,
2013-06-05 11:41:00,54.9,-99.9,30.05,NE,56,4.0,8.8,90,0.00,,,0.00,236.8,,2013-06-05 16:41:00,
2013-06-05 11:51:00,54.6,-99.9,30.05,NE,48,9.0,13.8,90,0.00,,,0.00,307.1,,2013-06-05 16:51:00,
2013-06-05 12:01:00,54.5,-99.9,30.05,NE,43,7.0,10.5,90,0.00,,,0.00,195,,2013-06-05 17:01:00,
2013-06-05 12:11:00,54.9,-99.9,30.05,NE,41,6.0,10.5,89,0.00,,,0.00,276.2,,2013-06-05 17:11:00,
2013-06-05 12:21:00,55.1,-99.9,30.05,North,2,8.0,12.1,88,0.00,,,0.00,180.3,,2013-06-05 17:21:00,
2013-06-05 12:31:00,54.5,-99.9,30.06,NNE,25,7.0,10.5,91,0.00,,,0.00,186.3,,2013-06-05 17:31:00,
2013-06-05 12:41:00,54.2,-99.9,30.06,North,9,7.0,8.8,91,0.00,,,0.00,116.4,,2013-06-05 17:41:00,
2013-06-05 12:51:00,54.3,-99.9,30.06,NNE,19,6.0,10.5,90,0.00,,,0.00,94.1,,2013-06-05 17:51:00,
2013-06-05 13:01:00,54.4,-99.9,30.06,North,0,7.0,12.1,90,0.00,,,0.00,161,,2013-06-05 18:01:00,
2013-06-05 13:11:00,54.4,-99.9,30.06,ENE,66,9.0,12.1,90,0.00,,,0.00,159.6,,2013-06-05 18:11:00,
2013-06-05 13:21:00,54.4,-99.9,30.06,NNE,27,3.0,5.4,90,0.00,,,0.00,185.4,,2013-06-05 18:21:00,
2013-06-05 13:31:00,54.8,-99.9,30.06,ENE,57,4.0,7.1,89,0.00,,,0.00,188.2,,2013-06-05 18:31:00,
2013-06-05 13:41:00,56.7,-99.9,30.06,NNE,18,4.0,5.4,86,0.00,,,0.00,754.7,,2013-06-05 18:41:00,
2013-06-05 13:51:00,58.4,-99.9,30.05,NE,56,7.0,10.5,81,0.00,,,0.00,266.9,,2013-06-05 18:51:00,
2013-06-05 14:01:00,56.9,-99.9,30.05,NE,45,8.0,13.8,85,0.00,,,0.00,105.4,,2013-06-05 19:01:00,
2013-06-05 14:11:00,58.2,-99.9,30.05,NNE,29,8.0,10.5,82,0.00,,,0.00,444.1,,2013-06-05 19:11:00,
2013-06-05 14:21:00,59.1,-99.9,30.05,ENE,57,6.0,8.8,80,0.00,,,0.00,278.1,,2013-06-05 19:21:00,
2013-06-05 14:31:00,58.2,-99.9,30.05,NNE,30,6.0,10.5,81,0.00,,,0.00,128.9,,2013-06-05 19:31:00,
2013-06-05 14:41:00,58.9,-99.9,30.05,NE,34,6.0,13.8,78,0.00,,,0.00,329.5,,2013-06-05 19:41:00,
2013-06-05 14:51:00,59.8,-99.9,30.05,ENE,69,6.0,8.8,79,0.00,,,0.00,294.3,,2013-06-05 19:51:00,
2013-06-05 15:01:00,60.3,-99.9,30.05,ENE,70,6.0,10.5,75,0.00,,,0.00,422.7,,2013-06-05 20:01:00,
2013-06-05 15:11:00,61.7,-99.9,30.04,NE,54,4.0,8.8,72,0.00,,,0.00,300.3,,2013-06-05 20:11:00,
2013-06-05 15:21:00,60.4,-99.9,30.04,NE,36,7.0,12.1,73,0.00,,,0.00,235.1,,2013-06-05 20:21:00,
2013-06-05 15:31:00,61.2,-99.9,30.04,North,4,8.0,13.8,76,0.00,,,0.00,221.3,,2013-06-05 20:31:00,
2013-06-05 15:41:00,60.1,-99.9,30.04,NE,55,10.0,17.2,76,0.00,,,0.00,199.1,,2013-06-05 20:41:00,
2013-06-05 15:51:00,60.1,-99.9,30.04,North,10,11.0,13.8,75,0.00,,,0.00,266.4,,2013-06-05 20:51:00,
2013-06-05 16:01:00,61.0,-99.9,30.04,NNE,32,8.0,12.1,72,0.00,,,0.00,554.5,,2013-06-05 21:01:00,
2013-06-05 16:11:00,62.1,-99.9,30.04,NNE,14,8.0,13.8,69,0.00,,,0.00,973,,2013-06-05 21:11:00,
2013-06-05 16:21:00,62.4,-99.9,30.04,NE,55,10.0,13.8,67,0.00,,,0.00,426.4,,2013-06-05 21:21:00,
2013-06-05 16:31:00,62.2,-99.9,30.04,NE,46,9.0,13.8,70,0.00,,,0.00,493,,2013-06-05 21:31:00,
2013-06-05 16:41:00,61.2,-99.9,30.04,NE,54,11.0,15.5,70,0.00,,,0.00,457,,2013-06-05 21:41:00,
2013-06-05 16:51:00,61.0,-99.9,30.04,NNE,23,8.0,12.1,74,0.00,,,0.00,291.2,,2013-06-05 21:51:00,
2013-06-05 17:01:00,61.0,-99.9,30.04,NE,50,8.0,12.1,70,0.00,,,0.00,369.5,,2013-06-05 22:01:00,
2013-06-05 17:11:00,61.7,-99.9,30.04,North,0,6.0,8.8,70,0.00,,,0.00,296.7,,2013-06-05 22:11:00,
2013-06-05 17:21:00,61.0,-99.9,30.05,North,2,6.0,10.5,74,0.00,,,0.00,206.5,,2013-06-05 22:21:00,
2013-06-05 17:31:00,60.9,-99.9,30.05,NE,51,10.0,15.5,68,0.00,,,0.00,248,,2013-06-05 22:31:00,
2013-06-05 17:41:00,61.5,-99.9,30.05,NNE,22,6.0,10.5,69,0.00,,,0.00,261.1,,2013-06-05 22:41:00,
2013-06-05 17:51:00,61.4,-99.9,30.05,NE,54,9.0,13.8,67,0.00,,,0.00,228.4,,2013-06-05 22:51:00,
2013-06-05 18:01:00,61.0,-99.9,30.05,NE,42,7.0,12.1,68,0.00,,,0.00,209.9,,2013-06-05 23:01:00,
2013-06-05 18:11:00,61.0,-99.9,30.05,ENE,72,6.0,8.8,68,0.00,,,0.00,196.7,,2013-06-05 23:11:00,
2013-06-05 18:21:00,60.3,-99.9,30.05,ENE,74,5.0,12.1,71,0.00,,,0.00,153.3,,2013-06-05 23:21:00,
2013-06-05 18:31:00,60.1,-99.9,30.05,NE,35,7.0,12.1,69,0.00,,,0.00,123.2,,2013-06-05 23:31:00,
2013-06-05 18:41:00,59.6,-99.9,30.05,North,6,6.0,10.5,72,0.00,,,0.00,95.9,,2013-06-05 23:41:00,
2013-06-05 18:51:00,59.6,-99.9,30.05,ENE,73,6.0,12.1,73,0.00,,,0.00,86.8,,2013-06-05 23:51:00,
2013-06-05 19:01:00,59.7,-99.9,30.05,ENE,66,4.0,7.1,73,0.00,,,0.00,83.4,,2013-06-06 00:01:00,
2013-06-05 19:11:00,59.5,-99.9,30.05,NE,55,7.0,8.8,74,0.00,,,0.00,71.38,,2013-06-06 00:11:00,
2013-06-05 19:21:00,59.2,-99.9,30.05,NNE,16,5.0,8.8,75,0.00,,,0.00,59.86,,2013-06-06 00:21:00,
2013-06-05 19:31:00,59.1,-99.9,30.05,NNE,30,5.0,8.8,76,0.00,,,0.00,65.25,,2013-06-06 00:31:00,
2013-06-05 19:41:00,59.0,-99.9,30.05,NE,34,6.0,8.8,76,0.00,,,0.00,61.18,,2013-06-06 00:41:00,
2013-06-05 19:51:00,58.8,-99.9,30.05,NNE,23,5.0,7.1,77,0.00,,,0.00,52.96,,2013-06-06 00:51:00,
2013-06-05 20:01:00,58.9,-99.9,30.05,NNE,18,6.0,8.8,78,0.00,,,0.00,63.23,,2013-06-06 01:01:00,
2013-06-05 20:11:00,60.5,-99.9,30.05,NNE,27,6.0,8.8,75,0.00,,,0.00,78.75,,2013-06-06 01:11:00,
2013-06-05 20:21:00,59.9,-99.9,30.05,NE,34,6.0,10.5,75,0.00,,,0.00,53.51,,2013-06-06 01:21:00,
2013-06-05 20:31:00,58.9,-99.9,30.06,NE,56,4.0,7.1,78,0.00,,,0.00,36.56,,2013-06-06 01:31:00,
2013-06-05 20:41:00,58.8,-99.9,30.06,North,10,6.0,8.8,78,0.00,,,0.00,49.48,,2013-06-06 01:41:00,
2013-06-05 20:51:00,58.6,-99.9,30.06,NE,37,3.0,5.4,79,0.00,,,0.00,20.18,,2013-06-06 01:51:00,
2013-06-05 21:01:00,58.3,-99.9,30.06,NE,52,4.0,5.4,79,0.00,,,0.00,11.89,,2013-06-06 02:01:00,
2013-06-05 21:11:00,57.6,-99.9,30.06,East,83,1.0,3.8,82,0.00,,,0.00,7.644,,2013-06-06 02:11:00,
2013-06-05 21:21:00,56.8,-99.9,30.06,NNE,12,1.0,3.8,83,0.00,,,0.00,4.741,,2013-06-06 02:21:00,
2013-06-05 21:31:00,56.1,-99.9,30.06,NE,46,1.0,2.1,85,0.00,,,0.00,2.311,,2013-06-06 02:31:00,
2013-06-05 21:41:00,55.2,-99.9,30.06,East,85,0.0,0.0,88,0.00,,,0.00,0.887,,2013-06-06 02:41:00,
2013-06-05 21:51:00,54.0,-99.9,30.07,NNE,32,0.0,0.0,91,0.00,,,0.00,0.203,,2013-06-06 02:51:00,
2013-06-05 22:01:00,53.2,-99.9,30.07,ENE,69,0.0,0.0,93,0.00,,,0.00,0.058,,2013-06-06 03:01:00,
2013-06-05 22:11:00,52.6,-99.9,30.07,NE,34,0.0,0.0,95,0.00,,,0.00,0.03,,2013-06-06 03:11:00,
2013-06-05 22:21:00,52.3,-99.9,30.08,NE,53,0.0,0.0,95,0.00,,,0.00,0.01,,2013-06-06 03:21:00,
2013-06-05 22:31:00,52.0,-99.9,30.08,NE,38,0.0,0.0,96,0.00,,,0.00,0.007,,2013-06-06 03:31:00,
2013-06-05 22:41:00,51.2,-99.9,30.08,East,89,0.0,0.0,96,0.00,,,0.00,0.047,,2013-06-06 03:41:00,
2013-06-05 22:51:00,50.8,-99.9,30.08,East,90,0.0,0.0,97,0.00,,,0.00,0.037,,2013-06-06 03:51:00,
2013-06-05 23:11:00,50.2,-99.9,30.08,East,88,0.0,0.0,97,0.00,,,0.00,0.159,,2013-06-06 04:11:00,
2013-06-05 23:21:00,49.5,-99.9,30.08,East,87,0.0,0.0,97,0.00,,,0.00,0.193,,2013-06-06 04:21:00,
2013-06-05 23:31:00,49.4,-99.9,30.08,East,87,0.0,0.0,98,0.00,,,0.00,0.176,,2013-06-06 04:31:00,
2013-06-05 23:41:00,49.3,-99.9,30.08,East,85,0.0,0.0,98,0.00,,,0.00,0.166,,2013-06-06 04:41:00,
2013-06-05 23:51:00,49.0,-99.9,30.08,East,85,0.0,0.0,98,0.00,,,0.00,0.179,,2013-06-06 04:51:00,